Starlink 3641

operational
NORAD ID: 51788 Int'l Des: 2022-017 Owner: SPXS Country: US Constellation: starlink
LEOCIRCULAR

Über Starlink 3641

Beschreibung wird geladen...

Live-Position

3D-Globus wird geladen...

Nächste Überflüge

Höhenverlauf

Altitude vs Time

uPlot chart will show altitude changes over time

Zweizeiliger Elementsatz

1 51788U 22017W 26036.51924853 .00001325 00000-0 10132-3 0 9996
2 51788 53.2177 133.5403 0001265 78.3766 281.7368 15.08840851219069
Epoch: 5. Feb. 2026 • Age: 18 hours

Aktueller Status

Höhe 545.4 km
Geschwindigkeit 7.60 km/s
Subsatellitenpunkt 53.21°N, 5.48°W
Startdatum 25. Feb. 2022
Alter 3.9 years
Typ internet

Technische Details

Klassifizierung Payload
Masse 297.00 kg
Trockenmasse 275.00 kg
Gesamtmasse 297.00 kg
Länge 0.20 m
Durchmesser 2.80 m
Spannweite 9.00 m
Form Box + pan
Hersteller SPXS
Bus-Typ Starlink
Phasenstatus In Orbit
Besitzer/Staat SPXS/US

Große Konstellationen

Loading constellations...